Regional Weather Roundup
Issued by NWS Sterling, VA

Home | Current Version | Previous Version | Text Only | Print | Product List | Glossary Off
Versions: 1 2 3 4 5 6 7 8 9 10 11 12 13 14 15 16 17 18 19 20 21 22 23 24 25 26 27 28 29 30 31 32 33 34 35 36 37 38 39 40 41 42 43 44 45 46 47 48 49 50

000
ASUS41 KLWX 071210
RWRLWX

REGIONAL WEATHER ROUNDUP
NATIONAL WEATHER SERVICE BALTIMORE MD/WASHINGTON DC
700 AM EST SUN FEB 07 2016

Note: "FAIR" indicates few or no clouds below 12,000 feet
with no significant weather and/or obstructions to visibility.
 TC=TEMPERATURE CELSIUS

 * =Non NWS site. Station does not report precipitation (e.g. rain,
    snow, etc.), thunder, or fog.

DCZ001-MDZ009-015-VAZ040>042-051-053>054-071300-
WASHINGTON METRO

CITY           SKY/WX    TMP DP  RH WIND       PRES   REMARKS
WASHINGTON NAT MOCLDY    31  25  78 SW3       30.21R
DULLES         FAIR      24  20  84 CALM      30.19S
ANDREWS AFB    MOCLDY    28  24  84 CALM      30.18R
FT BELVOIR     FAIR      24  22  90 CALM      30.20R
QUANTICO       FAIR      30  25  81 NW6       30.20S
COLLEGE PARK*  FAIR      27  27 100 CALM      30.19R
LEESBURG*      FAIR      27  23  86 CALM      30.19S
MANASSAS*      CLEAR     21  21 100 CALM      30.20R
GAITHERSBURG*  CLEAR     23  18  80 CALM      30.20S

$$

MDZ006>007-011-014-071300-
BALTIMORE METRO

CITY           SKY/WX    TMP DP  RH WIND       PRES   REMARKS
BWI AIRPORT    MOCLDY    23  20  88 CALM      30.18F
MD SCIENCE CTR   N/A     31  24  75 MISG      30.18F
MARTIN STATE   CLEAR     27  25  93 CALM      30.21F
ANNAPOLIS      PTCLDY    30  26  85 CALM      30.19S
FORT MEADE*    PTCLDY    23  21  93 CALM      30.20S

$$

MDZ012-015-019>023-071300-
MARYLAND EASTERN SHORE

CITY           SKY/WX    TMP DP  RH WIND       PRES   REMARKS
OCEAN CITY     PTCLDY    27  25  92 N6        30.18S
SALISBURY      PTCLDY    27  24  89 NE3       30.17S
BAY BRIDGE AP*   N/A     30  28  93 CALM      30.19R
EASTON*        PTCLDY    28  28 100 CALM      30.22F

$$

MDZ017>025-071300-
SOUTHERN MARYLAND

CITY           SKY/WX    TMP DP  RH WIND       PRES   REMARKS
PATUXENT RIVER PTCLDY    29  26  89 NW3       30.18R
ST INIGOES     CLOUDY    31  28  89 CALM      30.17S
LEONARDTOWN*   CLOUDY    30  27  86 CALM      30.20S

$$

MDZ003>005-071300-
NORTH CENTRAL MARYLAND

CITY           SKY/WX    TMP DP  RH WIND       PRES   REMARKS
FREDERICK*     NOT AVBL
HAGERSTOWN APT CLEAR     24  17  74 NW3       30.17F
WESTMINSTER*   CLEAR     25  21  86 CALM      30.15F

$$

MDZ501>502-071300-
WESTERN MARYLAND

CITY           SKY/WX    TMP DP  RH WIND       PRES   REMARKS
OAKLAND*       CLEAR     25  14  63 SW5       30.10R
CUMBERLAND*    CLEAR     25  23  93 NE3       30.23S

$$

VAZ025>031-071300-
SHENANDOAH VALLEY

CITY           SKY/WX    TMP DP  RH WIND       PRES   REMARKS
WINCHESTER*    FAIR      27  21  80 CALM      30.16S
FRONT ROYAL*   FAIR      27  21  80 CALM      30.16S
LURAY*         FAIR      23  23 100 CALM      30.17R
NEW MARKET*    FAIR      22  20  92 CALM      30.16S
STAUNTON*      FAIR      26  23  88 CALM      30.16F
WAYNESBORO*    FAIR      24  20  84 CALM      30.13F

$$

WVZ021-048>050-054>055-071300-
EASTERN WEST VIRGINIA PANHANDLE

CITY           SKY/WX    TMP DP  RH WIND       PRES   REMARKS
MARTINSBURG    FAIR      20  17  88 CALM      30.17F
PETERSBURG*    FAIR      22  20  92 CALM      30.19S

$$

VAZ036>039-050-071300-
CENTRAL FOOTHILLS

CITY           SKY/WX    TMP DP  RH WIND       PRES   REMARKS
CHARLOTTESVILL FAIR      27  20  75 CALM      30.15F
CULPEPER*      FAIR      22  20  93 CALM      30.19S
ORANGE*        FAIR      28  27  93 CALM      30.18S
GORDONSVILLE*  FAIR      26  24  91 CALM      30.15F
WARRENTON*     FAIR      23  23  99 CALM      30.18R

$$

VAZ055>057-071300-
NORTH AND CENTRAL PIEDMONT

CITY           SKY/WX    TMP DP  RH WIND       PRES   REMARKS
FREDERICKSBRG* FAIR      28  26  94 CALM      30.17F
STAFFORD*      FAIR      26  23  87 CALM      30.22S

$$

NCZ024-NYZ072-PAZ021-071-VAZ022-071-071300-
OTHER REGIONAL OBSERVATIONS

CITY           SKY/WX    TMP DP  RH WIND       PRES   REMARKS
NEW YORK CITY  CLEAR     35  20  54 W5        30.21R
PHILADELPHIA   PTCLDY    28  22  78 N5        30.20F
PITTSBURGH     PTCLDY    24  15  68 CALM      30.10F
ROANOKE        CLOUDY    26  21  81 CALM      30.17F
RICHMOND       CLOUDY    32  27  81 CALM      30.16R
RALEIGH        CLOUDY    37  25  61 NE9       30.10F

$$

ANZ530>537-071300-
MARINE OBSERVATIONS

STATION/POSITION TIME  TEMP    WIND        PRES
                       AIR SEA DIR/SP/G
                 (UTC) (F)     (DEG/KT/KT) (MB)
THOMAS PT LIGHT  1200   33     330/  4       N/A
BALT KEY BRIDGE  1100   31     220/  3/  4 1023.0F
COVE POINT       1100   35     340/  4/  7 1022.5F
LEWISETTA        1100   35 42  300/  2/  3 1021.7F
SOLOMONS ISLAND  1100   33 41  260/  1/  4   N/A

$$





USA.gov is the U.S. government's official web portal to all federal, state and local government web resources and services.